Home   Weather   Friesoythe   Past weeks

Flag for Germany Past Weather in Friesoythe, Lower Saxony, Germany — Yesterday and Last 2 Weeks

Now
68 °F

Passing clouds.


Feels Like: 68 °F
Forecast: 50 / 75 °F
Wind: 3 mph from North

Location: Meppen-Mil

Current Time: Aug 30, 2016 at 1:08:34 PM

Latest Report: Aug 30, 2016 at 12:20 PM


Visibility: N/A

Pressure: 30.30 "Hg

Humidity: 56%

Dew Point: 52 °F

Location of FriesoytheLocation

Past Weather in Friesoythe — Graph

°F

Friesoythe Temperature Yesterday

Maximum temperature yesterday: 70 °F (at 4:20 PM)
Minimum temperature yesterday: 52 °F (at 11:20 PM)
Average temperature yesterday: 63 °F

High & Low Weather Summary for the Past Weeks

 TemperatureHumidityPressure
High90 °F (Aug 25, 4:20 PM)100% (Aug 16, 6:20 AM)30.33 "Hg (Aug 16, 6:20 AM)
Low45 °F (Aug 16, 6:20 AM)32% (Aug 19, 3:20 PM)29.77 "Hg (Aug 19, 5:20 PM)
Average65 °F76%30.04 "Hg
* Reported Aug 15 11:20 AM — Aug 30 11:20 AM, Friesoythe, Weather by CustomWeather, © 2016

Note: Actual official high and low records may vary slightly from our data, if they occured in-between our weather recording intervals... More about our weather records

Advertising

Friesoythe Weather History for the Previous 24 Hours

Scroll right to see more
 ConditionsComfort  
Time TempWeatherWind HumidityBarometerVisibility
11:20 AM
Tue, Aug 30
66 °FPassing clouds.5 mph64%30.33 "HgN/A
10:20 AM64 °FPassing clouds.5 mph68%30.33 "HgN/A
9:20 AM61 °FPassing clouds.3 mph77%30.30 "HgN/A
8:20 AM54 °FPassing clouds.No wind94%30.30 "HgN/A
7:20 AM46 °FLight fog.No wind93%30.27 "HgN/A
6:20 AM45 °FQuite cool.No wind100%30.27 "Hg0 mi
5:20 AM46 °FCool.No wind93%30.27 "Hg0 mi
4:20 AM46 °FCool.No wind100%30.27 "Hg0 mi
3:20 AM48 °FCool.No wind100%30.24 "Hg0 mi
2:20 AM50 °FCool.No wind94%30.27 "Hg2 mi
1:20 AM50 °FCool.No wind100%30.24 "Hg1 mi
12:20 AM50 °FCool.No wind100%30.24 "Hg0 mi
11:20 PM
Mon, Aug 29
52 °FCool.No wind94%30.24 "Hg1 mi
10:20 PM54 °FCool.1 mph94%30.21 "Hg4 mi
9:20 PM55 °FCool.1 mph88%30.21 "Hg4 mi
8:20 PM61 °FCool.2 mph72%30.18 "Hg4 mi
7:20 PM64 °FMild.3 mph60%30.15 "Hg5 mi
6:20 PM68 °FMild.6 mph56%30.15 "Hg4 mi
5:20 PM68 °FMild.6 mph60%30.12 "Hg4 mi
4:20 PM70 °FMild.5 mph57%30.12 "Hg4 mi
3:20 PM68 °FMild.6 mph64%30.09 "Hg4 mi
2:20 PM63 °FMild.8 mph83%30.09 "Hg4 mi
1:20 PM66 °FScattered showers. Partly sunny.8 mph64%30.07 "HgN/A
Weather by CustomWeather, © 2016

See weather overviewHow to use our weather pages